Volver al catálogo

STARLINK-36259

ActivoComunicacionesVLEO
NORAD 67106·PAYLOAD·🇺🇸 United States

Lanzado Dec 15, 2025 desde Cape Canaveral Space Force Station

Loading…

Próximos Pases (próximas 24 horas)

TLE

ActualizadoSource: CelesTrak SupGP

Época: Sep 15, 2026, 02:44 UTC

1 67106C 25299E   26258.11437500 -.00018228  00000+0 -66032-3 0  2581
2 67106  42.9994 178.9091 0001143 275.7220 310.5894 15.27582557    16

Sigue STARLINK-36259 en tiempo real con AllMySat

Download on the App Store